EWG01A LZIB-LZKZ

Flight info

Callsign EWG01A
Flight time 0h 36m
Altitude 23000
Route NIT N190 TAKOS
Aircraft A320/M-SDE3FGHIRWY/LB1

Departure

Time 2026-04-29 18:57
Airport M. R. Štefánik Airport (LZIB)

Arrival

Time 2026-04-29 19:34
Airport Košice International Airport (LZKZ)
Time Latitude Longitude Altitude Speed Heading
2026-04-29 18:31 48.16802 17.19936 444 ft 0 kts 317°
2026-04-29 18:33 48.16802 17.19937 444 ft 0 kts 317°
2026-04-29 18:48 48.16800 17.19940 416 ft 2 kts 317°
2026-04-29 18:48 48.16787 17.19958 432 ft 3 kts 328°
2026-04-29 18:49 48.16771 17.19968 434 ft 2 kts 353°
2026-04-29 18:49 48.16760 17.19970 435 ft 3 kts
2026-04-29 18:49 48.16747 17.19968 435 ft 0 kts 28°
2026-04-29 18:50 48.16749 17.19970 436 ft 0 kts 28°
2026-04-29 18:51 48.16752 17.19975 437 ft 3 kts 45°
2026-04-29 18:51 48.16785 17.20022 435 ft 10 kts 42°
2026-04-29 18:52 48.16848 17.20120 436 ft 4 kts 57°
2026-04-29 18:52 48.16833 17.20184 433 ft 9 kts 132°
2026-04-29 18:52 48.16791 17.20247 443 ft 8 kts 135°
2026-04-29 18:52 48.16753 17.20304 441 ft 7 kts 135°
2026-04-29 18:53 48.16718 17.20351 440 ft 6 kts 152°
2026-04-29 18:53 48.16687 17.20337 441 ft 4 kts 214°
2026-04-29 18:53 48.16664 17.20310 435 ft 6 kts 218°
2026-04-29 18:53 48.16620 17.20256 436 ft 10 kts 219°
2026-04-29 18:54 48.16559 17.20177 434 ft 13 kts 221°
2026-04-29 18:54 48.16483 17.20077 432 ft 16 kts 221°
2026-04-29 18:54 48.16389 17.19957 436 ft 20 kts 221°
2026-04-29 18:54 48.16287 17.19824 437 ft 10 kts 220°
2026-04-29 18:55 48.16265 17.19799 441 ft 3 kts 210°
2026-04-29 18:55 48.16252 17.19792 432 ft 2 kts 199°
2026-04-29 18:55 48.16217 17.19790 445 ft 8 kts 168°
2026-04-29 18:55 48.16190 17.19810 435 ft 3 kts 152°
2026-04-29 18:56 48.16158 17.19850 436 ft 8 kts 136°
2026-04-29 18:56 48.16120 17.19933 440 ft 11 kts 102°
2026-04-29 18:56 48.16158 17.20053 436 ft 15 kts 48°
2026-04-29 18:56 48.16218 17.20139 436 ft 20 kts 44°
2026-04-29 18:57 48.16530 17.20570 434 ft 97 kts 45°
2026-04-29 18:57 48.17168 17.21472 463 ft 151 kts 38°
2026-04-29 18:57 48.17967 17.22614 938 ft 166 kts 39°
2026-04-29 18:57 48.18839 17.23849 1592 ft 178 kts 41°
2026-04-29 18:58 48.19762 17.25158 2213 ft 189 kts 42°
2026-04-29 18:58 48.20762 17.26609 2765 ft 208 kts 43°
2026-04-29 18:58 48.21809 17.28161 3642 ft 214 kts 47°
2026-04-29 18:58 48.22534 17.30209 4314 ft 238 kts 75°
2026-04-29 18:59 48.22765 17.32751 4873 ft 251 kts 80°
2026-04-29 18:59 48.22985 17.35358 5000 ft 252 kts 80°
2026-04-29 18:59 48.23210 17.37959 5009 ft 251 kts 79°
2026-04-29 18:59 48.23439 17.40556 5013 ft 251 kts 80°
2026-04-29 19:00 48.23670 17.43155 5011 ft 251 kts 80°
2026-04-29 19:00 48.23903 17.45750 5015 ft 251 kts 79°
2026-04-29 19:00 48.24137 17.48346 5010 ft 252 kts 79°
2026-04-29 19:00 48.24370 17.50954 5008 ft 252 kts 80°
2026-04-29 19:01 48.24600 17.53561 5003 ft 252 kts 80°
2026-04-29 19:01 48.24826 17.56135 5002 ft 252 kts 80°
2026-04-29 19:01 48.25060 17.58774 5639 ft 256 kts 80°
2026-04-29 19:01 48.25299 17.61485 6708 ft 262 kts 79°
2026-04-29 19:02 48.25541 17.64234 7604 ft 269 kts 79°
2026-04-29 19:02 48.25704 17.66090 8222 ft 273 kts 79°
2026-04-29 19:02 48.26043 17.69927 9473 ft 282 kts 79°
2026-04-29 19:02 48.26299 17.72833 10374 ft 287 kts 79°
2026-04-29 19:03 48.26563 17.75839 11205 ft 293 kts 79°
2026-04-29 19:03 48.26831 17.78902 11973 ft 301 kts 79°
2026-04-29 19:03 48.27102 17.82037 12228 ft 305 kts 79°
2026-04-29 19:03 48.27373 17.85199 12288 ft 306 kts 79°
2026-04-29 19:04 48.27643 17.88365 12299 ft 306 kts 79°
2026-04-29 19:04 48.27913 17.91522 12296 ft 305 kts 79°
2026-04-29 19:04 48.28179 17.94681 12291 ft 305 kts 79°
2026-04-29 19:04 48.28445 17.97847 12288 ft 305 kts 79°
2026-04-29 19:05 48.28711 18.01008 12288 ft 305 kts 79°
2026-04-29 19:05 48.28979 18.04169 12292 ft 305 kts 79°
2026-04-29 19:05 48.29404 18.07281 12289 ft 303 kts 73°
2026-04-29 19:05 48.29890 18.10331 12290 ft 303 kts 73°
2026-04-29 19:06 48.30377 18.13412 12293 ft 304 kts 73°
2026-04-29 19:06 48.30865 18.16502 12283 ft 304 kts 73°
2026-04-29 19:06 48.31832 18.22680 12291 ft 304 kts 74°
2026-04-29 19:07 48.32312 18.25767 12287 ft 304 kts 74°
2026-04-29 19:07 48.32630 18.27820 12285 ft 304 kts 74°
2026-04-29 19:07 48.33265 18.31917 12284 ft 304 kts 74°
2026-04-29 19:07 48.33743 18.35014 12286 ft 304 kts 74°
2026-04-29 19:08 48.34224 18.38133 12565 ft 308 kts 74°
2026-04-29 19:08 48.34708 18.41275 13541 ft 310 kts 73°
2026-04-29 19:08 48.35199 18.44465 14379 ft 316 kts 73°
2026-04-29 19:08 48.35699 18.47711 15101 ft 322 kts 72°
2026-04-29 19:09 48.36207 18.51012 15817 ft 328 kts 72°
2026-04-29 19:09 48.36723 18.54384 16525 ft 334 kts 72°
2026-04-29 19:09 48.37249 18.57814 17237 ft 340 kts 72°
2026-04-29 19:09 48.37784 18.61313 17943 ft 346 kts 72°
2026-04-29 19:10 48.38329 18.64868 18649 ft 352 kts 71°
2026-04-29 19:10 48.38881 18.68491 19274 ft 358 kts 72°
2026-04-29 19:10 48.39424 18.72182 19889 ft 363 kts 73°
2026-04-29 19:10 48.39933 18.75931 20509 ft 369 kts 73°
2026-04-29 19:11 48.40426 18.79749 21098 ft 374 kts 74°
2026-04-29 19:11 48.40913 18.83623 21715 ft 379 kts 74°
2026-04-29 19:11 48.41401 18.87543 22328 ft 383 kts 74°
2026-04-29 19:11 48.41900 18.91519 22921 ft 388 kts 74°
2026-04-29 19:12 48.42401 18.95487 23230 ft 393 kts 74°
2026-04-29 19:12 48.42924 18.99607 23304 ft 409 kts 74°
2026-04-29 19:12 48.43475 19.03907 23296 ft 426 kts 75°
2026-04-29 19:12 48.43847 19.06831 23290 ft 430 kts 75°
2026-04-29 19:13 48.44586 19.12725 22616 ft 427 kts 75°
2026-04-29 19:13 48.45129 19.17108 22073 ft 423 kts 75°
2026-04-29 19:13 48.45664 19.21448 21581 ft 419 kts 75°
2026-04-29 19:13 48.46191 19.25741 21288 ft 416 kts 75°
2026-04-29 19:14 48.46719 19.30026 21289 ft 416 kts 75°
2026-04-29 19:14 48.47249 19.34305 21296 ft 416 kts 75°
2026-04-29 19:14 48.47777 19.38582 21299 ft 415 kts 75°
2026-04-29 19:14 48.48304 19.42863 21295 ft 415 kts 75°
2026-04-29 19:15 48.48830 19.47138 21161 ft 412 kts 75°
2026-04-29 19:15 48.49347 19.51370 20644 ft 409 kts 75°
2026-04-29 19:15 48.49851 19.55517 20185 ft 405 kts 75°
2026-04-29 19:15 48.50353 19.59668 19744 ft 400 kts 75°
2026-04-29 19:16 48.50847 19.63785 19299 ft 398 kts 76°
2026-04-29 19:16 48.51333 19.67868 18871 ft 394 kts 76°
2026-04-29 19:16 48.51817 19.71915 18438 ft 390 kts 76°
2026-04-29 19:16 48.52298 19.75923 17964 ft 386 kts 76°
2026-04-29 19:17 48.52775 19.79880 17513 ft 382 kts 76°
2026-04-29 19:17 48.53245 19.83796 17073 ft 378 kts 76°
2026-04-29 19:17 48.53707 19.87676 16640 ft 373 kts 76°
2026-04-29 19:17 48.54161 19.91517 16226 ft 370 kts 76°
2026-04-29 19:18 48.54610 19.95317 15745 ft 366 kts 77°
2026-04-29 19:18 48.54905 19.97818 15473 ft 364 kts 77°
2026-04-29 19:18 48.55492 20.02809 14948 ft 358 kts 77°
2026-04-29 19:18 48.55921 20.06494 14548 ft 355 kts 77°
2026-04-29 19:19 48.56343 20.10139 14177 ft 351 kts 77°
2026-04-29 19:19 48.56761 20.13760 13726 ft 348 kts 77°
2026-04-29 19:19 48.57174 20.17350 13249 ft 346 kts 78°
2026-04-29 19:19 48.57582 20.20915 12774 ft 344 kts 78°
2026-04-29 19:20 48.57989 20.24458 12293 ft 342 kts 78°
2026-04-29 19:20 48.58394 20.27987 11815 ft 340 kts 78°
2026-04-29 19:20 48.58785 20.31494 11342 ft 338 kts 78°
2026-04-29 19:20 48.59143 20.35003 10864 ft 338 kts 84°
2026-04-29 19:21 48.58963 20.38483 10433 ft 337 kts 100°
2026-04-29 19:21 48.58516 20.41951 9947 ft 336 kts 101°
2026-04-29 19:21 48.58057 20.45399 9479 ft 333 kts 100°
2026-04-29 19:21 48.57600 20.48794 9049 ft 329 kts 100°
2026-04-29 19:22 48.57145 20.52158 8620 ft 324 kts 99°
2026-04-29 19:22 48.56696 20.55465 8206 ft 319 kts 99°
2026-04-29 19:22 48.56255 20.58725 8005 ft 315 kts 99°
2026-04-29 19:22 48.55816 20.61964 8030 ft 315 kts 99°
2026-04-29 19:23 48.55378 20.65204 8014 ft 315 kts 99°
2026-04-29 19:23 48.54941 20.68427 7921 ft 312 kts 98°
2026-04-29 19:23 48.54511 20.71569 7735 ft 297 kts 98°
2026-04-29 19:23 48.54104 20.74527 7284 ft 283 kts 98°
2026-04-29 19:24 48.53708 20.77409 6597 ft 278 kts 98°
2026-04-29 19:24 48.53320 20.80233 5876 ft 272 kts 98°
2026-04-29 19:24 48.52937 20.83002 5167 ft 267 kts 97°
2026-04-29 19:24 48.52563 20.85715 4442 ft 262 kts 97°
2026-04-29 19:25 48.52198 20.88378 3729 ft 256 kts 96°
2026-04-29 19:25 48.51839 20.90978 3158 ft 248 kts 96°
2026-04-29 19:25 48.51497 20.93407 3018 ft 224 kts 96°
2026-04-29 19:25 48.51188 20.95573 3016 ft 200 kts 95°
2026-04-29 19:26 48.50906 20.97594 3028 ft 196 kts 95°
2026-04-29 19:26 48.50632 20.99607 3028 ft 196 kts 95°
2026-04-29 19:26 48.50360 21.01617 3034 ft 196 kts 95°
2026-04-29 19:26 48.50089 21.03599 3028 ft 195 kts 95°
2026-04-29 19:27 48.49809 21.05624 3030 ft 194 kts 95°
2026-04-29 19:27 48.49532 21.07620 3029 ft 195 kts 95°
2026-04-29 19:27 48.49257 21.09601 3034 ft 194 kts 95°
2026-04-29 19:27 48.48984 21.11532 3042 ft 186 kts 95°
2026-04-29 19:28 48.48719 21.13431 3031 ft 184 kts 94°
2026-04-29 19:28 48.48489 21.15311 3021 ft 175 kts 85°
2026-04-29 19:28 48.48726 21.16915 3027 ft 143 kts 57°
2026-04-29 19:28 48.49346 21.17974 3025 ft 131 kts 34°
2026-04-29 19:29 48.50171 21.18497 3052 ft 130 kts 15°
2026-04-29 19:29 48.51048 21.18796 3037 ft 129 kts 16°
2026-04-29 19:29 48.51925 21.19102 3036 ft 129 kts 16°
2026-04-29 19:29 48.52803 21.19409 3029 ft 129 kts 15°
2026-04-29 19:30 48.53683 21.19715 3006 ft 130 kts 16°
2026-04-29 19:30 48.54558 21.20020 2903 ft 129 kts 15°
2026-04-29 19:30 48.55427 21.20323 2757 ft 127 kts 15°
2026-04-29 19:30 48.56281 21.20619 2592 ft 122 kts 15°
2026-04-29 19:31 48.57062 21.20891 2439 ft 111 kts 15°
2026-04-29 19:31 48.57788 21.21144 2290 ft 107 kts 15°
2026-04-29 19:31 48.58508 21.21395 2148 ft 106 kts 16°
2026-04-29 19:31 48.59221 21.21643 2002 ft 105 kts 15°
2026-04-29 19:32 48.59943 21.21895 1845 ft 108 kts 15°
2026-04-29 19:32 48.60682 21.22153 1686 ft 110 kts 14°
2026-04-29 19:32 48.61441 21.22417 1512 ft 114 kts 13°
2026-04-29 19:32 48.62212 21.22686 1350 ft 116 kts 12°
2026-04-29 19:33 48.63004 21.22962 1189 ft 118 kts 11°
2026-04-29 19:33 48.63802 21.23239 1031 ft 117 kts 13°
2026-04-29 19:33 48.64597 21.23508 855 ft 117 kts 13°
2026-04-29 19:33 48.65374 21.23799 750 ft 107 kts 14°
2026-04-29 19:34 48.65935 21.23990 753 ft 58 kts 13°
2026-04-29 19:34 48.66160 21.24067 753 ft 8 kts 12°
2026-04-29 19:34 48.66186 21.24076 753 ft 6 kts 12°
2026-04-29 19:34 48.66249 21.24105 751 ft 13 kts 15°
2026-04-29 19:35 48.66354 21.24129 753 ft 18 kts 12°
2026-04-29 19:35 48.66494 21.24179 752 ft 23 kts 13°
2026-04-29 19:35 48.66628 21.24225 756 ft 16 kts 14°
2026-04-29 19:35 48.66752 21.24271 755 ft 21 kts 13°
2026-04-29 19:36 48.66911 21.24328 760 ft 26 kts 14°
2026-04-29 19:36 48.67100 21.24392 760 ft 26 kts 12°
2026-04-29 19:36 48.67235 21.24346 757 ft 24 kts 296°
2026-04-29 19:36 48.67274 21.24119 759 ft 20 kts 284°
2026-04-29 19:37 48.67305 21.23937 758 ft 15 kts 290°
2026-04-29 19:37 48.67330 21.23909 760 ft 11 kts 340°
2026-04-29 19:37 48.67343 21.23885 756 ft 0 kts 294°